Tabellarische Ansicht des 14.4.2009


Die einzelnen Werte des Tages

Uhrzeit Temperatur Luftdruck Luftfeuchte Wind Hi-Wind Taupunkt THW Index Wind Chill Heat Index Solar- strahlung Regen

00:00

9.6 C

1006.5 hpa

82 %

0.0 km/h aus 111

3.2 km/h aus NNE

6.7 C

9.6 C

9.6 C

9.6 C

0 W/m

0.00 mm

00:05

9.4 C

1006.5 hpa

83 %

0.0 km/h aus 111

1.6 km/h aus NNE

6.6 C

9.4 C

9.4 C

9.4 C

0 W/m

0.00 mm

00:10

9.3 C

1006.5 hpa

83 %

0.0 km/h aus 115

1.6 km/h aus NNE

6.6 C

9.3 C

9.3 C

9.3 C

0 W/m

0.00 mm

00:15

9.4 C

1006.5 hpa

83 %

0.0 km/h aus 103

0.0 km/h aus ---

6.6 C

9.4 C

9.4 C

9.4 C

0 W/m

0.00 mm

00:20

9.5 C

1006.5 hpa

84 %

0.0 km/h aus 108

0.0 km/h aus ---

6.9 C

9.6 C

9.5 C

9.6 C

0 W/m

0.00 mm

00:25

9.4 C

1006.5 hpa

83 %

0.0 km/h aus 105

0.0 km/h aus ---

6.7 C

9.4 C

9.4 C

9.4 C

0 W/m

0.00 mm

00:30

9.3 C

1006.5 hpa

84 %

0.0 km/h aus 105

0.0 km/h aus ---

6.8 C

9.3 C

9.3 C

9.3 C

0 W/m

0.00 mm

00:35

9.2 C

1006.5 hpa

84 %

0.0 km/h aus 112

1.6 km/h aus NNE

6.6 C

9.2 C

9.2 C

9.2 C

0 W/m

0.00 mm

00:40

8.9 C

1006.5 hpa

85 %

0.0 km/h aus 109

3.2 km/h aus NNE

6.5 C

8.9 C

8.9 C

8.9 C

0 W/m

0.00 mm

00:45

8.9 C

1006.6 hpa

86 %

0.0 km/h aus 111

0.0 km/h aus ---

6.7 C

8.9 C

8.9 C

8.9 C

0 W/m

0.00 mm

00:50

8.8 C

1006.6 hpa

86 %

0.0 km/h aus 111

0.0 km/h aus ---

6.6 C

8.8 C

8.8 C

8.8 C

0 W/m

0.00 mm

00:55

8.8 C

1006.6 hpa

85 %

0.0 km/h aus 113

3.2 km/h aus NNE

6.4 C

8.8 C

8.8 C

8.8 C

0 W/m

0.00 mm

01:00

8.6 C

1006.6 hpa

86 %

0.0 km/h aus 113

3.2 km/h aus NNE

6.3 C

8.6 C

8.6 C

8.6 C

0 W/m

0.00 mm

01:05

8.6 C

1006.6 hpa

87 %

0.0 km/h aus 114

3.2 km/h aus NNE

6.5 C

8.6 C

8.6 C

8.6 C

0 W/m

0.00 mm

01:10

8.6 C

1006.6 hpa

87 %

0.0 km/h aus 108

3.2 km/h aus NNE

6.6 C

8.7 C

8.6 C

8.7 C

0 W/m

0.00 mm

01:15

8.6 C

1006.6 hpa

87 %

0.0 km/h aus 112

1.6 km/h aus NNE

6.5 C

8.6 C

8.6 C

8.6 C

0 W/m

0.00 mm

01:20

8.6 C

1006.6 hpa

87 %

0.0 km/h aus 113

1.6 km/h aus NNE

6.6 C

8.7 C

8.6 C

8.7 C

0 W/m

0.00 mm

01:25

8.7 C

1006.6 hpa

87 %

0.0 km/h aus 115

1.6 km/h aus NNE

6.6 C

8.7 C

8.7 C

8.7 C

0 W/m

0.00 mm

01:30

8.6 C

1006.7 hpa

87 %

0.0 km/h aus 116

1.6 km/h aus NNE

6.6 C

8.7 C

8.6 C

8.7 C

0 W/m

0.00 mm

01:35

8.5 C

1006.7 hpa

86 %

0.0 km/h aus 114

1.6 km/h aus NNE

6.3 C

8.5 C

8.5 C

8.5 C

0 W/m

0.00 mm

01:40

8.4 C

1006.7 hpa

86 %

0.0 km/h aus 111

0.0 km/h aus ---

6.2 C

8.4 C

8.4 C

8.4 C

0 W/m

0.00 mm

01:45

8.4 C

1006.7 hpa

86 %

0.0 km/h aus 115

0.0 km/h aus ---

6.2 C

8.4 C

8.4 C

8.4 C

0 W/m

0.00 mm

01:50

8.7 C

1006.7 hpa

86 %

0.0 km/h aus 108

3.2 km/h aus NNE

6.5 C

8.7 C

8.7 C

8.7 C

0 W/m

0.00 mm

01:55

8.6 C

1006.7 hpa

85 %

1.6 km/h aus 109

3.2 km/h aus NNE

6.2 C

8.6 C

8.6 C

8.6 C

0 W/m

0.00 mm

02:00

8.4 C

1006.6 hpa

85 %

0.0 km/h aus 110

0.0 km/h aus ---

6.1 C

8.4 C

8.4 C

8.4 C

0 W/m

0.00 mm

02:05

8.3 C

1006.6 hpa

85 %

1.6 km/h aus 111

3.2 km/h aus NNE

5.9 C

8.3 C

8.3 C

8.3 C

0 W/m

0.00 mm

02:10

8.2 C

1006.6 hpa

86 %

1.6 km/h aus 111

1.6 km/h aus NNE

6.0 C

8.2 C

8.2 C

8.2 C

0 W/m

0.00 mm

02:15

8.0 C

1006.7 hpa

87 %

0.0 km/h aus 114

1.6 km/h aus NNE

6.0 C

8.1 C

8.0 C

8.1 C

0 W/m

0.00 mm

02:20

8.1 C

1006.7 hpa

87 %

0.0 km/h aus 110

1.6 km/h aus NNE

6.0 C

8.1 C

8.1 C

8.1 C

0 W/m

0.00 mm

02:25

8.2 C

1006.7 hpa

87 %

0.0 km/h aus 112

1.6 km/h aus NNE

6.1 C

8.2 C

8.2 C

8.2 C

0 W/m

0.00 mm

02:30

8.1 C

1006.7 hpa

87 %

0.0 km/h aus 114

0.0 km/h aus ---

6.0 C

8.1 C

8.1 C

8.1 C

0 W/m

0.00 mm

02:35

8.1 C

1006.7 hpa

87 %

0.0 km/h aus 111

1.6 km/h aus NNE

6.0 C

8.1 C

8.1 C

8.1 C

0 W/m

0.00 mm

02:40

7.9 C

1006.7 hpa

87 %

0.0 km/h aus 113

0.0 km/h aus ---

5.9 C

8.0 C

7.9 C

8.0 C

0 W/m

0.00 mm

02:45

7.8 C

1006.6 hpa

88 %

0.0 km/h aus 114

0.0 km/h aus ---

6.0 C

7.9 C

7.8 C

7.9 C

0 W/m

0.00 mm

02:50

7.8 C

1006.6 hpa

88 %

0.0 km/h aus 115

0.0 km/h aus ---

5.9 C

7.8 C

7.8 C

7.8 C

0 W/m

0.00 mm

02:55

7.7 C

1006.6 hpa

88 %

0.0 km/h aus 114

0.0 km/h aus ---

5.9 C

7.8 C

7.7 C

7.8 C

0 W/m

0.00 mm

03:00

7.7 C

1006.6 hpa

88 %

0.0 km/h aus 112

0.0 km/h aus ---

5.9 C

7.8 C

7.7 C

7.8 C

0 W/m

0.00 mm

03:05

7.6 C

1006.6 hpa

87 %

0.0 km/h aus 112

0.0 km/h aus ---

5.5 C

7.6 C

7.6 C

7.6 C

0 W/m

0.00 mm

03:10

7.5 C

1006.6 hpa

89 %

0.0 km/h aus 117

0.0 km/h aus ---

5.8 C

7.6 C

7.5 C

7.6 C

0 W/m

0.00 mm

03:15

7.4 C

1006.6 hpa

89 %

0.0 km/h aus 117

0.0 km/h aus ---

5.7 C

7.4 C

7.4 C

7.4 C

0 W/m

0.00 mm

03:20

7.4 C

1006.6 hpa

90 %

0.0 km/h aus 117

0.0 km/h aus ---

5.9 C

7.4 C

7.4 C

7.4 C

0 W/m

0.00 mm

03:25

7.4 C

1006.6 hpa

90 %

0.0 km/h aus 117

1.6 km/h aus NNE

5.9 C

7.5 C

7.4 C

7.5 C

0 W/m

0.00 mm

03:30

7.6 C

1006.6 hpa

90 %

0.0 km/h aus 116

0.0 km/h aus ---

6.0 C

7.6 C

7.6 C

7.6 C

0 W/m

0.00 mm

03:35

7.5 C

1006.6 hpa

90 %

0.0 km/h aus 117

0.0 km/h aus ---

6.0 C

7.6 C

7.5 C

7.6 C

0 W/m

0.00 mm

03:40

7.5 C

1006.6 hpa

90 %

0.0 km/h aus 117

0.0 km/h aus ---

6.0 C

7.6 C

7.5 C

7.6 C

0 W/m

0.00 mm

03:45

7.3 C

1006.6 hpa

90 %

0.0 km/h aus 117

0.0 km/h aus ---

5.8 C

7.4 C

7.3 C

7.4 C

0 W/m

0.00 mm

03:50

7.0 C

1006.6 hpa

90 %

0.0 km/h aus 117

1.6 km/h aus NNE

5.5 C

7.1 C

7.0 C

7.1 C

0 W/m

0.00 mm

03:55

7.0 C

1006.6 hpa

90 %

1.6 km/h aus 118

3.2 km/h aus NNE

5.5 C

7.1 C

7.0 C

7.1 C

0 W/m

0.00 mm

04:00

7.0 C

1006.7 hpa

91 %

0.0 km/h aus 117

1.6 km/h aus NNE

5.6 C

7.1 C

7.0 C

7.1 C

0 W/m

0.00 mm

04:05

7.1 C

1006.7 hpa

91 %

0.0 km/h aus 117

3.2 km/h aus NNE

5.7 C

7.1 C

7.1 C

7.1 C

0 W/m

0.00 mm

04:10

7.1 C

1006.7 hpa

91 %

0.0 km/h aus 117

3.2 km/h aus NNE

5.7 C

7.2 C

7.1 C

7.2 C

0 W/m

0.00 mm

04:15

7.2 C

1006.7 hpa

91 %

0.0 km/h aus 117

0.0 km/h aus ---

5.8 C

7.2 C

7.2 C

7.2 C

0 W/m

0.00 mm

04:20

7.1 C

1006.7 hpa

91 %

0.0 km/h aus 117

3.2 km/h aus NNE

5.7 C

7.2 C

7.1 C

7.2 C

0 W/m

0.00 mm

04:25

7.0 C

1006.7 hpa

91 %

1.6 km/h aus 116

3.2 km/h aus NNE

5.6 C

7.1 C

7.0 C

7.1 C

0 W/m

0.00 mm

04:30

6.9 C

1006.7 hpa

91 %

1.6 km/h aus 116

3.2 km/h aus NNE

5.6 C

7.0 C

6.9 C

7.0 C

0 W/m

0.00 mm

04:35

6.9 C

1006.7 hpa

91 %

1.6 km/h aus 117

3.2 km/h aus NNE

5.6 C

7.0 C

6.9 C

7.0 C

0 W/m

0.00 mm

04:40

6.8 C

1006.7 hpa

91 %

0.0 km/h aus 117

1.6 km/h aus NNE

5.4 C

6.8 C

6.8 C

6.8 C

0 W/m

0.00 mm

04:45

6.7 C

1006.7 hpa

91 %

1.6 km/h aus 117

3.2 km/h aus NNE

5.3 C

6.7 C

6.7 C

6.7 C

0 W/m

0.00 mm

04:50

6.6 C

1006.7 hpa

91 %

0.0 km/h aus 117

1.6 km/h aus NNE

5.2 C

6.7 C

6.6 C

6.7 C

0 W/m

0.00 mm

04:55

6.6 C

1006.7 hpa

91 %

0.0 km/h aus 114

1.6 km/h aus NNE

5.2 C

6.6 C

6.6 C

6.6 C

0 W/m

0.00 mm

05:00

6.5 C

1006.7 hpa

91 %

0.0 km/h aus 118

1.6 km/h aus NNE

5.1 C

6.6 C

6.5 C

6.6 C

0 W/m

0.00 mm

05:05

6.5 C

1006.7 hpa

92 %

0.0 km/h aus 117

1.6 km/h aus NNE

5.3 C

6.6 C

6.5 C

6.6 C

0 W/m

0.00 mm

05:10

6.6 C

1006.7 hpa

92 %

1.6 km/h aus 117

3.2 km/h aus NNE

5.3 C

6.6 C

6.6 C

6.6 C

0 W/m

0.00 mm

05:15

6.7 C

1006.7 hpa

92 %

0.0 km/h aus 116

1.6 km/h aus NNE

5.5 C

6.7 C

6.7 C

6.7 C

0 W/m

0.00 mm

05:20

6.7 C

1006.7 hpa

92 %

0.0 km/h aus 116

1.6 km/h aus NNE

5.5 C

6.7 C

6.7 C

6.7 C

0 W/m

0.00 mm

05:25

6.7 C

1006.7 hpa

92 %

0.0 km/h aus 117

0.0 km/h aus ---

5.5 C

6.8 C

6.7 C

6.8 C

0 W/m

0.00 mm

05:30

6.7 C

1006.6 hpa

92 %

0.0 km/h aus 117

0.0 km/h aus ---

5.5 C

6.8 C

6.7 C

6.8 C

0 W/m

0.00 mm

05:35

6.7 C

1006.6 hpa

92 %

0.0 km/h aus 117

1.6 km/h aus NNE

5.5 C

6.8 C

6.7 C

6.8 C

0 W/m

0.00 mm

05:40

6.7 C

1006.6 hpa

92 %

0.0 km/h aus 117

1.6 km/h aus NNE

5.5 C

6.7 C

6.7 C

6.7 C

0 W/m

0.00 mm

05:45

6.6 C

1006.7 hpa

92 %

0.0 km/h aus 117

1.6 km/h aus NNE

5.3 C

6.6 C

6.6 C

6.6 C

0 W/m

0.00 mm

05:50

6.4 C

1006.7 hpa

92 %

0.0 km/h aus 117

0.0 km/h aus ---

5.2 C

6.5 C

6.4 C

6.5 C

0 W/m

0.00 mm

05:55

6.2 C

1006.7 hpa

91 %

0.0 km/h aus 117

1.6 km/h aus NNE

4.9 C

6.2 C

6.2 C

6.2 C

0 W/m

0.00 mm

06:00

6.2 C

1006.8 hpa

92 %

1.6 km/h aus 116

3.2 km/h aus NNE

5.0 C

6.2 C

6.2 C

6.2 C

0 W/m

0.00 mm

06:05

6.0 C

1006.8 hpa

92 %

0.0 km/h aus 118

1.6 km/h aus NNE

4.8 C

6.0 C

6.0 C

6.0 C

0 W/m

0.00 mm

06:10

6.1 C

1006.8 hpa

92 %

0.0 km/h aus 117

1.6 km/h aus NNE

4.9 C

6.1 C

6.1 C

6.1 C

0 W/m

0.00 mm

06:15

6.2 C

1006.8 hpa

92 %

0.0 km/h aus 117

0.0 km/h aus ---

5.0 C

6.3 C

6.2 C

6.3 C

0 W/m

0.00 mm

06:20

6.2 C

1006.8 hpa

92 %

0.0 km/h aus 116

0.0 km/h aus ---

5.0 C

6.3 C

6.2 C

6.3 C

0 W/m

0.00 mm

06:25

6.3 C

1006.8 hpa

92 %

0.0 km/h aus 117

0.0 km/h aus ---

5.1 C

6.3 C

6.3 C

6.3 C

0 W/m

0.00 mm

06:30

6.2 C

1007.0 hpa

92 %

0.0 km/h aus 117

0.0 km/h aus ---

5.0 C

6.3 C

6.2 C

6.3 C

0 W/m

0.00 mm

06:35

6.1 C

1007.0 hpa

92 %

0.0 km/h aus 116

0.0 km/h aus ---

4.9 C

6.1 C

6.1 C

6.1 C

0 W/m

0.00 mm

06:40

6.1 C

1007.0 hpa

92 %

0.0 km/h aus 116

0.0 km/h aus ---

4.9 C

6.1 C

6.1 C

6.1 C

0 W/m

0.00 mm

06:45

6.1 C

1007.0 hpa

93 %

0.0 km/h aus 117

0.0 km/h aus ---

5.1 C

6.2 C

6.1 C

6.2 C

0 W/m

0.00 mm

06:50

6.3 C

1007.0 hpa

93 %

0.0 km/h aus 117

0.0 km/h aus ---

5.2 C

6.3 C

6.3 C

6.3 C

0 W/m

0.00 mm

06:55

6.3 C

1007.0 hpa

92 %

0.0 km/h aus 117

0.0 km/h aus ---

5.1 C

6.3 C

6.3 C

6.3 C

0 W/m

0.00 mm

07:00

6.3 C

1007.0 hpa

93 %

0.0 km/h aus 117

0.0 km/h aus ---

5.3 C

6.4 C

6.3 C

6.4 C

0 W/m

0.00 mm

07:05

6.3 C

1007.0 hpa

93 %

0.0 km/h aus 116

0.0 km/h aus ---

5.3 C

6.4 C

6.3 C

6.4 C

0 W/m

0.00 mm

07:10

6.3 C

1007.0 hpa

93 %

0.0 km/h aus 117

0.0 km/h aus ---

5.3 C

6.4 C

6.3 C

6.4 C

0 W/m

0.00 mm

07:15

6.3 C

1007.1 hpa

93 %

0.0 km/h aus 117

0.0 km/h aus ---

5.3 C

6.4 C

6.3 C

6.4 C

0 W/m

0.00 mm

07:20

6.4 C

1007.1 hpa

93 %

0.0 km/h aus 117

0.0 km/h aus ---

5.4 C

6.5 C

6.4 C

6.5 C

0 W/m

0.00 mm

07:25

6.6 C

1007.1 hpa

93 %

0.0 km/h aus 117

1.6 km/h aus NE

5.6 C

6.7 C

6.6 C

6.7 C

0 W/m

0.00 mm

07:30

6.8 C

1007.1 hpa

93 %

0.0 km/h aus 117

1.6 km/h aus E

5.7 C

6.9 C

6.8 C

6.9 C

0 W/m

0.00 mm

07:35

6.9 C

1007.1 hpa

93 %

0.0 km/h aus 117

1.6 km/h aus E

5.8 C

7.0 C

6.9 C

7.0 C

0 W/m

0.00 mm

07:40

6.9 C

1007.1 hpa

93 %

0.0 km/h aus 116

0.0 km/h aus ---

5.8 C

7.0 C

6.9 C

7.0 C

0 W/m

0.00 mm

07:45

6.9 C

1007.1 hpa

93 %

0.0 km/h aus 117

0.0 km/h aus ---

5.9 C

7.1 C

6.9 C

7.1 C

0 W/m

0.00 mm

07:50

7.2 C

1007.1 hpa

93 %

0.0 km/h aus 117

0.0 km/h aus ---

6.1 C

7.3 C

7.2 C

7.3 C

0 W/m

0.00 mm

07:55

7.3 C

1007.1 hpa

94 %

0.0 km/h aus 115

0.0 km/h aus ---

6.4 C

7.4 C

7.3 C

7.4 C

0 W/m

0.00 mm

08:00

7.7 C

1007.2 hpa

94 %

0.0 km/h aus 117

0.0 km/h aus ---

6.8 C

7.8 C

7.7 C

7.8 C

0 W/m

0.00 mm

08:05

7.8 C

1007.2 hpa

94 %

0.0 km/h aus 117

0.0 km/h aus ---

6.9 C

8.0 C

7.8 C

8.0 C

0 W/m

0.00 mm

08:10

8.2 C

1007.2 hpa

94 %

0.0 km/h aus 118

0.0 km/h aus ---

7.3 C

8.3 C

8.2 C

8.3 C

0 W/m

0.00 mm

08:15

8.4 C

1007.4 hpa

94 %

0.0 km/h aus 117

0.0 km/h aus ---

7.5 C

8.6 C

8.4 C

8.6 C

0 W/m

0.00 mm

08:20

8.8 C

1007.4 hpa

93 %

0.0 km/h aus 116

0.0 km/h aus ---

7.7 C

8.9 C

8.8 C

8.9 C

0 W/m

0.00 mm

08:25

9.2 C

1007.4 hpa

93 %

0.0 km/h aus 116

0.0 km/h aus ---

8.1 C

9.4 C

9.2 C

9.4 C

0 W/m

0.00 mm

08:30

9.4 C

1007.6 hpa

93 %

0.0 km/h aus 117

0.0 km/h aus ---

8.4 C

9.7 C

9.4 C

9.7 C

0 W/m

0.00 mm

08:35

9.8 C

1007.6 hpa

92 %

0.0 km/h aus 117

0.0 km/h aus ---

8.5 C

10.0 C

9.8 C

10.0 C

0 W/m

0.00 mm

08:40

10.2 C

1007.6 hpa

92 %

0.0 km/h aus 116

0.0 km/h aus ---

8.9 C

10.3 C

10.2 C

10.3 C

0 W/m

0.00 mm

08:45

10.4 C

1007.6 hpa

91 %

0.0 km/h aus 116

0.0 km/h aus ---

9.0 C

10.6 C

10.4 C

10.6 C

0 W/m

0.00 mm

08:50

10.7 C

1007.6 hpa

90 %

0.0 km/h aus 116

0.0 km/h aus ---

9.1 C

10.8 C

10.7 C

10.8 C

0 W/m

0.00 mm

08:55

11.1 C

1007.6 hpa

89 %

0.0 km/h aus 117

1.6 km/h aus E

9.3 C

11.2 C

11.1 C

11.2 C

0 W/m

0.00 mm

09:00

11.4 C

1007.6 hpa

89 %

0.0 km/h aus 117

0.0 km/h aus ---

9.6 C

11.4 C

11.4 C

11.4 C

0 W/m

0.00 mm

09:05

11.8 C

1007.6 hpa

88 %

0.0 km/h aus 117

1.6 km/h aus E

9.9 C

11.8 C

11.8 C

11.8 C

0 W/m

0.00 mm

09:10

12.2 C

1007.6 hpa

87 %

0.0 km/h aus 117

3.2 km/h aus E

10.1 C

12.2 C

12.2 C

12.2 C

0 W/m

0.00 mm

09:15

12.6 C

1007.6 hpa

86 %

1.6 km/h aus 118

3.2 km/h aus E

10.3 C

12.6 C

12.6 C

12.6 C

0 W/m

0.00 mm

09:20

12.9 C

1007.6 hpa

85 %

1.6 km/h aus 117

3.2 km/h aus E

10.4 C

12.8 C

12.9 C

12.8 C

0 W/m

0.00 mm

09:25

13.2 C

1007.6 hpa

85 %

1.6 km/h aus 116

4.8 km/h aus E

10.7 C

13.1 C

13.2 C

13.1 C

0 W/m

0.00 mm

09:30

13.3 C

1007.6 hpa

86 %

1.6 km/h aus 116

4.8 km/h aus E

11.0 C

13.3 C

13.3 C

13.3 C

0 W/m

0.00 mm

09:35

13.5 C

1007.6 hpa

85 %

1.6 km/h aus 117

4.8 km/h aus E

11.0 C

13.4 C

13.5 C

13.4 C

0 W/m

0.00 mm

09:40

13.7 C

1007.6 hpa

85 %

1.6 km/h aus 117

4.8 km/h aus ENE

11.2 C

13.7 C

13.7 C

13.7 C

0 W/m

0.00 mm

09:45

13.9 C

1007.7 hpa

85 %

1.6 km/h aus 117

6.4 km/h aus NE

11.5 C

13.9 C

13.9 C

13.9 C

0 W/m

0.00 mm

09:50

14.0 C

1007.7 hpa

84 %

0.0 km/h aus 117

3.2 km/h aus NE

11.3 C

13.9 C

14.0 C

13.9 C

0 W/m

0.00 mm

09:55

14.2 C

1007.7 hpa

84 %

1.6 km/h aus 117

6.4 km/h aus NE

11.5 C

14.1 C

14.2 C

14.1 C

0 W/m

0.00 mm

10:00

14.3 C

1007.8 hpa

84 %

1.6 km/h aus 115

6.4 km/h aus NE

11.6 C

14.2 C

14.3 C

14.2 C

0 W/m

0.00 mm

10:05

14.3 C

1007.8 hpa

84 %

3.2 km/h aus 117

8.0 km/h aus NNE

11.7 C

14.3 C

14.3 C

14.3 C

0 W/m

0.00 mm

10:10

14.5 C

1007.8 hpa

83 %

3.2 km/h aus 117

8.0 km/h aus N

11.6 C

14.4 C

14.5 C

14.4 C

0 W/m

0.00 mm

10:15

14.4 C

1007.8 hpa

84 %

3.2 km/h aus 117

8.0 km/h aus N

11.7 C

14.3 C

14.4 C

14.3 C

0 W/m

0.00 mm

10:20

14.6 C

1007.8 hpa

84 %

3.2 km/h aus 117

11.3 km/h aus NNW

11.9 C

14.6 C

14.6 C

14.6 C

0 W/m

0.00 mm

10:25

14.6 C

1007.8 hpa

83 %

6.4 km/h aus 115

9.7 km/h aus NNW

11.7 C

14.5 C

14.6 C

14.5 C

0 W/m

0.00 mm

10:30

14.8 C

1008.0 hpa

83 %

4.8 km/h aus 117

9.7 km/h aus N

11.9 C

14.7 C

14.8 C

14.7 C

0 W/m

0.00 mm

10:35

15.0 C

1008.0 hpa

82 %

4.8 km/h aus 116

9.7 km/h aus N

12.0 C

14.9 C

15.0 C

14.9 C

0 W/m

0.00 mm

10:40

15.0 C

1008.0 hpa

83 %

4.8 km/h aus 116

8.0 km/h aus N

12.1 C

14.9 C

15.0 C

14.9 C

0 W/m

0.00 mm

10:45

15.1 C

1008.0 hpa

82 %

4.8 km/h aus 117

8.0 km/h aus N

12.0 C

15.0 C

15.1 C

15.0 C

0 W/m

0.00 mm

10:50

15.3 C

1008.0 hpa

82 %

4.8 km/h aus 116

8.0 km/h aus N

12.3 C

15.3 C

15.3 C

15.3 C

0 W/m

0.00 mm

10:55

15.3 C

1008.0 hpa

82 %

3.2 km/h aus 117

8.0 km/h aus N

12.2 C

15.2 C

15.3 C

15.2 C

0 W/m

0.00 mm

11:00

15.4 C

1008.0 hpa

82 %

4.8 km/h aus 116

9.7 km/h aus N

12.4 C

15.4 C

15.4 C

15.4 C

0 W/m

0.00 mm

11:05

15.6 C

1008.0 hpa

81 %

3.2 km/h aus 114

8.0 km/h aus N

12.4 C

15.6 C

15.6 C

15.6 C

0 W/m

0.00 mm

11:10

15.9 C

1008.0 hpa

81 %

3.2 km/h aus 115

8.0 km/h aus N

12.6 C

15.9 C

15.9 C

15.9 C

0 W/m

0.00 mm

11:15

16.1 C

1008.1 hpa

80 %

4.8 km/h aus 116

8.0 km/h aus N

12.7 C

16.1 C

16.1 C

16.1 C

0 W/m

0.00 mm

11:20

16.4 C

1008.1 hpa

80 %

3.2 km/h aus 115

8.0 km/h aus N

12.9 C

16.4 C

16.4 C

16.4 C

0 W/m

0.00 mm

11:25

16.8 C

1008.1 hpa

76 %

4.8 km/h aus 110

8.0 km/h aus N

12.5 C

16.7 C

16.8 C

16.7 C

0 W/m

0.00 mm

11:30

16.4 C

1008.1 hpa

78 %

4.8 km/h aus 111

8.0 km/h aus N

12.5 C

16.4 C

16.4 C

16.4 C

0 W/m

0.00 mm

11:35

16.8 C

1008.1 hpa

77 %

3.2 km/h aus 114

6.4 km/h aus N

12.7 C

16.8 C

16.8 C

16.8 C

0 W/m

0.00 mm

11:40

16.9 C

1008.1 hpa

76 %

3.2 km/h aus 113

8.0 km/h aus N

12.7 C

16.9 C

16.9 C

16.9 C

0 W/m

0.00 mm

11:45

16.8 C

1008.1 hpa

75 %

3.2 km/h aus 113

6.4 km/h aus N

12.4 C

16.7 C

16.8 C

16.7 C

0 W/m

0.00 mm

11:50

17.1 C

1008.1 hpa

75 %

4.8 km/h aus 113

8.0 km/h aus N

12.6 C

17.0 C

17.1 C

17.0 C

0 W/m

0.00 mm

11:55

17.3 C

1008.1 hpa

74 %

4.8 km/h aus 113

8.0 km/h aus N

12.7 C

17.3 C

17.3 C

17.3 C

0 W/m

0.00 mm

12:00

17.4 C

1008.0 hpa

72 %

3.2 km/h aus 115

6.4 km/h aus N

12.3 C

17.3 C

17.4 C

17.3 C

0 W/m

0.00 mm

12:05

17.7 C

1008.0 hpa

71 %

3.2 km/h aus 112

4.8 km/h aus N

12.3 C

17.6 C

17.7 C

17.6 C

0 W/m

0.00 mm

12:10

17.9 C

1008.0 hpa

69 %

1.6 km/h aus 112

4.8 km/h aus N

12.2 C

17.8 C

17.9 C

17.8 C

0 W/m

0.00 mm

12:15

18.2 C

1008.0 hpa

66 %

1.6 km/h aus 111

4.8 km/h aus N

11.8 C

18.1 C

18.2 C

18.1 C

0 W/m

0.00 mm

12:20

18.2 C

1008.0 hpa

67 %

1.6 km/h aus 114

4.8 km/h aus N

11.9 C

18.1 C

18.2 C

18.1 C

0 W/m

0.00 mm

12:25

18.1 C

1008.0 hpa

65 %

1.6 km/h aus 115

3.2 km/h aus N

11.4 C

17.8 C

18.1 C

17.8 C

0 W/m

0.00 mm

12:30

18.1 C

1007.9 hpa

68 %

0.0 km/h aus 116

3.2 km/h aus N

12.1 C

18.0 C

18.1 C

18.0 C

0 W/m

0.00 mm

12:35

18.6 C

1007.9 hpa

65 %

1.6 km/h aus 116

6.4 km/h aus N

11.8 C

18.4 C

18.6 C

18.4 C

0 W/m

0.00 mm

12:40

18.8 C

1007.9 hpa

65 %

1.6 km/h aus 116

4.8 km/h aus N

12.1 C

18.7 C

18.8 C

18.7 C

0 W/m

0.00 mm

12:45

18.8 C

1007.7 hpa

67 %

1.6 km/h aus 115

8.0 km/h aus N

12.5 C

18.7 C

18.8 C

18.7 C

0 W/m

0.00 mm

12:50

19.2 C

1007.7 hpa

66 %

1.6 km/h aus 117

6.4 km/h aus N

12.7 C

19.2 C

19.2 C

19.2 C

0 W/m

0.00 mm

12:55

19.2 C

1007.7 hpa

64 %

3.2 km/h aus 115

6.4 km/h aus N

12.2 C

19.1 C

19.2 C

19.1 C

0 W/m

0.00 mm

13:00

19.4 C

1007.6 hpa

64 %

1.6 km/h aus 111

6.4 km/h aus N

12.4 C

19.3 C

19.4 C

19.3 C

0 W/m

0.00 mm

13:05

19.6 C

1007.6 hpa

62 %

1.6 km/h aus 116

4.8 km/h aus N

12.1 C

19.5 C

19.6 C

19.5 C

0 W/m

0.00 mm

13:10

19.4 C

1007.6 hpa

63 %

1.6 km/h aus 114

6.4 km/h aus N

12.2 C

19.3 C

19.4 C

19.3 C

0 W/m

0.00 mm

13:15

20.0 C

1007.6 hpa

64 %

1.6 km/h aus 113

8.0 km/h aus N

13.0 C

20.1 C

20.0 C

20.1 C

0 W/m

0.00 mm

13:20

19.8 C

1007.6 hpa

63 %

3.2 km/h aus 116

8.0 km/h aus N

12.6 C

19.8 C

19.8 C

19.8 C

0 W/m

0.00 mm

13:25

20.2 C

1007.6 hpa

61 %

3.2 km/h aus 116

8.0 km/h aus N

12.4 C

20.0 C

20.2 C

20.0 C

0 W/m

0.00 mm

13:30

20.1 C

1007.6 hpa

63 %

3.2 km/h aus 115

8.0 km/h aus NNW

12.8 C

20.1 C

20.1 C

20.1 C

0 W/m

0.00 mm

13:35

20.3 C

1007.6 hpa

62 %

3.2 km/h aus 114

6.4 km/h aus NNW

12.8 C

20.2 C

20.3 C

20.2 C

0 W/m

0.00 mm

13:40

20.7 C

1007.6 hpa

63 %

3.2 km/h aus 114

9.7 km/h aus N

13.4 C

20.5 C

20.7 C

20.5 C

0 W/m

0.00 mm

13:45

20.8 C

1007.6 hpa

60 %

3.2 km/h aus 114

8.0 km/h aus N

12.8 C

20.4 C

20.8 C

20.4 C

0 W/m

0.00 mm

13:50

20.4 C

1007.6 hpa

60 %

1.6 km/h aus 111

6.4 km/h aus N

12.4 C

20.2 C

20.4 C

20.2 C

0 W/m

0.00 mm

13:55

20.7 C

1007.6 hpa

62 %

3.2 km/h aus 116

9.7 km/h aus N

13.1 C

20.4 C

20.7 C

20.4 C

0 W/m

0.00 mm

14:00

20.9 C

1007.5 hpa

58 %

4.8 km/h aus 116

9.7 km/h aus N

12.4 C

20.4 C

20.9 C

20.4 C

0 W/m

0.00 mm

14:05

21.1 C

1007.5 hpa

56 %

3.2 km/h aus 114

9.7 km/h aus N

11.9 C

20.4 C

21.1 C

20.4 C

0 W/m

0.00 mm

14:10

21.2 C

1007.5 hpa

57 %

1.6 km/h aus 116

6.4 km/h aus N

12.4 C

20.7 C

21.2 C

20.7 C

0 W/m

0.00 mm

14:15

21.3 C

1007.5 hpa

55 %

4.8 km/h aus 116

9.7 km/h aus NE

11.9 C

20.7 C

21.3 C

20.7 C

0 W/m

0.00 mm

14:20

21.3 C

1007.5 hpa

53 %

3.2 km/h aus 114

6.4 km/h aus NE

11.3 C

20.5 C

21.3 C

20.5 C

0 W/m

0.00 mm

14:25

21.4 C

1007.5 hpa

51 %

4.8 km/h aus 112

8.0 km/h aus NNE

10.9 C

20.7 C

21.4 C

20.7 C

0 W/m

0.00 mm

14:30

21.4 C

1007.4 hpa

49 %

4.8 km/h aus 115

8.0 km/h aus NNE

10.3 C

20.6 C

21.4 C

20.6 C

0 W/m

0.00 mm

14:35

21.5 C

1007.4 hpa

47 %

4.8 km/h aus 115

11.3 km/h aus N

9.7 C

20.5 C

21.5 C

20.5 C

0 W/m

0.00 mm

14:40

21.3 C

1007.4 hpa

45 %

6.4 km/h aus 116

11.3 km/h aus N

8.9 C

20.2 C

21.3 C

20.2 C

0 W/m

0.00 mm

14:45

21.2 C

1007.3 hpa

46 %

6.4 km/h aus 115

14.5 km/h aus NNW

9.1 C

20.1 C

21.2 C

20.1 C

0 W/m

0.00 mm

14:50

21.4 C

1007.3 hpa

46 %

6.4 km/h aus 115

11.3 km/h aus NNW

9.3 C

20.3 C

21.4 C

20.3 C

0 W/m

0.00 mm

14:55

21.5 C

1007.3 hpa

44 %

6.4 km/h aus 113

14.5 km/h aus NNW

8.7 C

20.3 C

21.5 C

20.3 C

0 W/m

0.00 mm

15:00

21.7 C

1007.1 hpa

42 %

8.0 km/h aus 117

17.7 km/h aus NNW

8.2 C

20.4 C

21.7 C

20.4 C

0 W/m

0.00 mm

15:05

21.8 C

1007.1 hpa

43 %

8.0 km/h aus 114

14.5 km/h aus N

8.7 C

20.8 C

21.8 C

20.8 C

0 W/m

0.00 mm

15:10

21.8 C

1007.1 hpa

45 %

6.4 km/h aus 116

14.5 km/h aus N

9.3 C

20.8 C

21.8 C

20.8 C

0 W/m

0.00 mm

15:15

21.8 C

1007.1 hpa

42 %

6.4 km/h aus 114

14.5 km/h aus N

8.3 C

20.7 C

21.8 C

20.7 C

0 W/m

0.00 mm

15:20

21.7 C

1007.1 hpa

44 %

8.0 km/h aus 116

11.3 km/h aus NNW

8.9 C

20.6 C

21.7 C

20.6 C

0 W/m

0.00 mm

15:25

21.7 C

1007.1 hpa

44 %

6.4 km/h aus 116

14.5 km/h aus NNW

8.9 C

20.6 C

21.7 C

20.6 C

0 W/m

0.00 mm

15:30

22.0 C

1007.1 hpa

43 %

6.4 km/h aus 112

12.9 km/h aus NNE

8.8 C

21.0 C

22.0 C

21.0 C

0 W/m

0.00 mm

15:35

22.1 C

1007.1 hpa

44 %

4.8 km/h aus 115

11.3 km/h aus NNE

9.2 C

21.1 C

22.1 C

21.1 C

0 W/m

0.00 mm

15:40

21.9 C

1007.1 hpa

43 %

8.0 km/h aus 114

16.1 km/h aus N

8.8 C

20.9 C

21.9 C

20.9 C

0 W/m

0.00 mm

15:45

21.9 C

1007.1 hpa

45 %

6.4 km/h aus 113

11.3 km/h aus N

9.4 C

20.9 C

21.9 C

20.9 C

0 W/m

0.00 mm

15:50

21.8 C

1007.1 hpa

46 %

4.8 km/h aus 113

9.7 km/h aus N

9.6 C

20.8 C

21.8 C

20.8 C

0 W/m

0.00 mm

15:55

21.5 C

1007.1 hpa

44 %

6.4 km/h aus 114

11.3 km/h aus N

8.7 C

20.3 C

21.5 C

20.3 C

0 W/m

0.00 mm

16:00

21.3 C

1007.2 hpa

46 %

6.4 km/h aus 113

11.3 km/h aus N

9.2 C

20.2 C

21.3 C

20.2 C

0 W/m

0.00 mm

16:05

21.7 C

1007.2 hpa

47 %

4.8 km/h aus 113

11.3 km/h aus N

9.9 C

20.7 C

21.7 C

20.7 C

0 W/m

0.00 mm

16:10

21.8 C

1007.2 hpa

47 %

6.4 km/h aus 116

11.3 km/h aus N

10.0 C

20.9 C

21.8 C

20.9 C

0 W/m

0.00 mm

16:15

21.9 C

1007.1 hpa

46 %

4.8 km/h aus 113

9.7 km/h aus N

9.7 C

21.0 C

21.9 C

21.0 C

0 W/m

0.00 mm

16:20

21.7 C

1007.1 hpa

42 %

4.8 km/h aus 115

12.9 km/h aus N

8.2 C

20.4 C

21.7 C

20.4 C

0 W/m

0.00 mm

16:25

21.6 C

1007.1 hpa

45 %

4.8 km/h aus 115

11.3 km/h aus N

9.1 C

20.4 C

21.6 C

20.4 C

0 W/m

0.00 mm

16:30

21.6 C

1007.1 hpa

42 %

4.8 km/h aus 112

14.5 km/h aus NNW

8.1 C

20.3 C

21.6 C

20.3 C

0 W/m

0.00 mm

16:35

21.6 C

1007.1 hpa

42 %

6.4 km/h aus 115

9.7 km/h aus N

8.1 C

20.3 C

21.6 C

20.3 C

0 W/m

0.00 mm

16:40

21.7 C

1007.1 hpa

43 %

6.4 km/h aus 116

11.3 km/h aus N

8.5 C

20.5 C

21.7 C

20.5 C

0 W/m

0.00 mm

16:45

21.8 C

1007.0 hpa

44 %

6.4 km/h aus 113

11.3 km/h aus N

9.0 C

20.7 C

21.8 C

20.7 C

0 W/m

0.00 mm

16:50

21.8 C

1007.0 hpa

44 %

8.0 km/h aus 116

16.1 km/h aus N

9.0 C

20.7 C

21.8 C

20.7 C

0 W/m

0.00 mm

16:55

21.6 C

1007.0 hpa

46 %

4.8 km/h aus 117

11.3 km/h aus NNW

9.4 C

20.5 C

21.6 C

20.5 C

0 W/m

0.00 mm

17:00

21.5 C

1007.0 hpa

45 %

3.2 km/h aus 114

8.0 km/h aus N

9.1 C

20.4 C

21.5 C

20.4 C

0 W/m

0.00 mm

17:05

21.6 C

1007.0 hpa

46 %

3.2 km/h aus 112

11.3 km/h aus N

9.5 C

20.6 C

21.6 C

20.6 C

0 W/m

0.00 mm

17:10

21.4 C

1007.0 hpa

44 %

4.8 km/h aus 115

11.3 km/h aus N

8.7 C

20.3 C

21.4 C

20.3 C

0 W/m

0.00 mm

17:15

21.4 C

1007.1 hpa

47 %

3.2 km/h aus 113

9.7 km/h aus N

9.6 C

20.4 C

21.4 C

20.4 C

0 W/m

0.00 mm

17:20

21.3 C

1007.1 hpa

45 %

4.8 km/h aus 116

11.3 km/h aus N

8.9 C

20.1 C

21.3 C

20.1 C

0 W/m

0.00 mm

17:25

21.2 C

1007.1 hpa

48 %

6.4 km/h aus 116

14.5 km/h aus N

9.7 C

20.1 C

21.2 C

20.1 C

0 W/m

0.00 mm

17:30

21.1 C

1007.1 hpa

46 %

4.8 km/h aus 115

11.3 km/h aus NNW

9.0 C

19.9 C

21.1 C

19.9 C

0 W/m

0.00 mm

17:35

21.0 C

1007.1 hpa

48 %

4.8 km/h aus 110

9.7 km/h aus NNW

9.6 C

20.0 C

21.0 C

20.0 C

0 W/m

0.00 mm

17:40

20.9 C

1007.1 hpa

49 %

4.8 km/h aus 113

11.3 km/h aus N

9.8 C

20.0 C

20.9 C

20.0 C

0 W/m

0.00 mm

17:45

21.0 C

1007.1 hpa

48 %

4.8 km/h aus 116

9.7 km/h aus N

9.6 C

20.0 C

21.0 C

20.0 C

0 W/m

0.00 mm

17:50

21.1 C

1007.1 hpa

49 %

3.2 km/h aus 112

8.0 km/h aus N

9.9 C

20.1 C

21.1 C

20.1 C

0 W/m

0.00 mm

17:55

21.2 C

1007.1 hpa

49 %

3.2 km/h aus 116

9.7 km/h aus N

10.0 C

20.2 C

21.2 C

20.2 C

0 W/m

0.00 mm

18:00

21.0 C

1007.0 hpa

50 %

3.2 km/h aus 113

8.0 km/h aus N

10.2 C

20.1 C

21.0 C

20.1 C

0 W/m

0.00 mm

18:05

21.0 C

1007.0 hpa

50 %

3.2 km/h aus 112

8.0 km/h aus N

10.2 C

20.1 C

21.0 C

20.1 C

0 W/m

0.00 mm

18:10

20.9 C

1007.0 hpa

49 %

1.6 km/h aus 114

8.0 km/h aus N

9.8 C

20.0 C

20.9 C

20.0 C

0 W/m

0.00 mm

18:15

20.8 C

1007.1 hpa

51 %

1.6 km/h aus 112

6.4 km/h aus N

10.3 C

20.0 C

20.8 C

20.0 C

0 W/m

0.00 mm

18:20

20.7 C

1007.1 hpa

50 %

3.2 km/h aus 111

8.0 km/h aus N

9.9 C

19.8 C

20.7 C

19.8 C

0 W/m

0.00 mm

18:25

20.6 C

1007.1 hpa

51 %

1.6 km/h aus 112

4.8 km/h aus N

10.1 C

19.8 C

20.6 C

19.8 C

0 W/m

0.00 mm

18:30

20.4 C

1007.1 hpa

54 %

1.6 km/h aus 114

4.8 km/h aus N

10.8 C

19.9 C

20.4 C

19.9 C

0 W/m

0.00 mm

18:35

20.3 C

1007.1 hpa

53 %

0.0 km/h aus 115

3.2 km/h aus N

10.4 C

19.7 C

20.3 C

19.7 C

0 W/m

0.00 mm

18:40

20.2 C

1007.1 hpa

54 %

3.2 km/h aus 114

6.4 km/h aus N

10.6 C

19.6 C

20.2 C

19.6 C

0 W/m

0.00 mm

18:45

20.1 C

1007.0 hpa

55 %

0.0 km/h aus 113

3.2 km/h aus N

10.7 C

19.6 C

20.1 C

19.6 C

0 W/m

0.00 mm

18:50

19.8 C

1007.0 hpa

58 %

0.0 km/h aus 112

1.6 km/h aus N

11.3 C

19.4 C

19.8 C

19.4 C

0 W/m

0.00 mm

18:55

19.6 C

1007.0 hpa

59 %

0.0 km/h aus 116

3.2 km/h aus N

11.3 C

19.3 C

19.6 C

19.3 C

0 W/m

0.00 mm

19:00

19.4 C

1007.1 hpa

58 %

0.0 km/h aus 115

3.2 km/h aus N

11.0 C

19.1 C

19.4 C

19.1 C

0 W/m

0.00 mm

19:05

19.3 C

1007.1 hpa

59 %

1.6 km/h aus 112

4.8 km/h aus N

11.1 C

18.9 C

19.3 C

18.9 C

0 W/m

0.00 mm

19:10

19.2 C

1007.1 hpa

59 %

1.6 km/h aus 113

4.8 km/h aus N

11.0 C

18.8 C

19.2 C

18.8 C

0 W/m

0.00 mm

19:15

19.0 C

1007.1 hpa

62 %

0.0 km/h aus 110

3.2 km/h aus N

11.6 C

18.7 C

19.0 C

18.7 C

0 W/m

0.00 mm

19:20

18.7 C

1007.1 hpa

65 %

0.0 km/h aus 112

1.6 km/h aus N

12.0 C

18.6 C

18.7 C

18.6 C

0 W/m

0.00 mm

19:25

18.4 C

1007.1 hpa

65 %

0.0 km/h aus 114

1.6 km/h aus N

11.7 C

18.2 C

18.4 C

18.2 C

0 W/m

0.00 mm

19:30

18.2 C

1007.1 hpa

67 %

0.0 km/h aus 111

1.6 km/h aus N

11.9 C

18.1 C

18.2 C

18.1 C

0 W/m

0.00 mm

19:35

17.7 C

1007.1 hpa

68 %

0.0 km/h aus 112

0.0 km/h aus ---

11.7 C

17.6 C

17.7 C

17.6 C

0 W/m

0.00 mm

19:40

17.4 C

1007.1 hpa

70 %

0.0 km/h aus 113

0.0 km/h aus ---

11.9 C

17.3 C

17.4 C

17.3 C

0 W/m

0.00 mm

19:45

17.3 C

1007.3 hpa

70 %

0.0 km/h aus 109

0.0 km/h aus ---

11.8 C

17.1 C

17.3 C

17.1 C

0 W/m

0.00 mm

19:50

17.0 C

1007.3 hpa

71 %

0.0 km/h aus 112

0.0 km/h aus ---

11.7 C

16.8 C

17.0 C

16.8 C

0 W/m

0.00 mm

19:55

16.8 C

1007.3 hpa

71 %

0.0 km/h aus 112

0.0 km/h aus ---

11.5 C

16.6 C

16.8 C

16.6 C

0 W/m

0.00 mm

20:00

16.6 C

1007.5 hpa

72 %

0.0 km/h aus 107

0.0 km/h aus ---

11.5 C

16.3 C

16.6 C

16.3 C

0 W/m

0.00 mm

20:05

16.3 C

1007.5 hpa

73 %

0.0 km/h aus 113

0.0 km/h aus ---

11.5 C

16.1 C

16.3 C

16.1 C

0 W/m

0.00 mm

20:10

16.1 C

1007.5 hpa

72 %

0.0 km/h aus 111

0.0 km/h aus ---

11.1 C

15.8 C

16.1 C

15.8 C

0 W/m

0.00 mm

20:15

15.8 C

1007.6 hpa

74 %

0.0 km/h aus 111

1.6 km/h aus N

11.2 C

15.6 C

15.8 C

15.6 C

0 W/m

0.00 mm

20:20

15.6 C

1007.6 hpa

75 %

0.0 km/h aus 111

0.0 km/h aus ---

11.1 C

15.3 C

15.6 C

15.3 C

0 W/m

0.00 mm

20:25

15.3 C

1007.6 hpa

76 %

0.0 km/h aus 107

0.0 km/h aus ---

11.1 C

15.1 C

15.3 C

15.1 C

0 W/m

0.00 mm

20:30

15.0 C

1007.6 hpa

77 %

0.0 km/h aus 111

0.0 km/h aus ---

11.0 C

14.8 C

15.0 C

14.8 C

0 W/m

0.00 mm

20:35

15.0 C

1007.6 hpa

77 %

0.0 km/h aus 106

0.0 km/h aus ---

11.0 C

14.8 C

15.0 C

14.8 C

0 W/m

0.00 mm

20:40

14.7 C

1007.6 hpa

78 %

0.0 km/h aus 110

0.0 km/h aus ---

10.9 C

14.5 C

14.7 C

14.5 C

0 W/m

0.00 mm

20:45

14.4 C

1007.8 hpa

79 %

0.0 km/h aus 112

1.6 km/h aus N

10.8 C

14.3 C

14.4 C

14.3 C

0 W/m

0.00 mm

20:50

14.5 C

1007.8 hpa

78 %

0.0 km/h aus 108

0.0 km/h aus ---

10.7 C

14.3 C

14.5 C

14.3 C

0 W/m

0.00 mm

20:55

14.4 C

1007.8 hpa

79 %

0.0 km/h aus 108

0.0 km/h aus ---

10.8 C

14.2 C

14.4 C

14.2 C

0 W/m

0.00 mm

21:00

14.3 C

1008.0 hpa

79 %

0.0 km/h aus 108

0.0 km/h aus ---

10.7 C

14.2 C

14.3 C

14.2 C

0 W/m

0.00 mm

21:05

14.2 C

1008.0 hpa

80 %

0.0 km/h aus 108

1.6 km/h aus N

10.8 C

14.1 C

14.2 C

14.1 C

0 W/m

0.00 mm

21:10

13.9 C

1008.0 hpa

81 %

0.0 km/h aus 113

3.2 km/h aus N

10.7 C

13.8 C

13.9 C

13.8 C

0 W/m

0.00 mm

21:15

13.7 C

1008.1 hpa

82 %

0.0 km/h aus 110

0.0 km/h aus ---

10.7 C

13.6 C

13.7 C

13.6 C

0 W/m

0.00 mm

21:20

13.6 C

1008.1 hpa

83 %

0.0 km/h aus 105

0.0 km/h aus ---

10.7 C

13.4 C

13.6 C

13.4 C

0 W/m

0.00 mm

21:25

13.3 C

1008.1 hpa

84 %

0.0 km/h aus 113

0.0 km/h aus ---

10.6 C

13.2 C

13.3 C

13.2 C

0 W/m

0.00 mm

21:30

13.2 C

1008.1 hpa

84 %

0.0 km/h aus 109

1.6 km/h aus N

10.6 C

13.2 C

13.2 C

13.2 C

0 W/m

0.00 mm

21:35

13.0 C

1008.1 hpa

85 %

1.6 km/h aus 110

3.2 km/h aus N

10.5 C

12.9 C

13.0 C

12.9 C

0 W/m

0.00 mm

21:40

12.9 C

1008.1 hpa

86 %

1.6 km/h aus 110

4.8 km/h aus N

10.7 C

12.9 C

12.9 C

12.9 C

0 W/m

0.00 mm

21:45

12.8 C

1008.1 hpa

85 %

3.2 km/h aus 104

4.8 km/h aus N

10.3 C

12.7 C

12.8 C

12.7 C

0 W/m

0.00 mm

21:50

12.7 C

1008.1 hpa

86 %

0.0 km/h aus 112

3.2 km/h aus N

10.4 C

12.7 C

12.7 C

12.7 C

0 W/m

0.00 mm

21:55

12.7 C

1008.1 hpa

85 %

0.0 km/h aus 112

0.0 km/h aus ---

10.2 C

12.6 C

12.7 C

12.6 C

0 W/m

0.00 mm

22:00

12.6 C

1008.2 hpa

86 %

0.0 km/h aus 109

0.0 km/h aus ---

10.3 C

12.5 C

12.6 C

12.5 C

0 W/m

0.00 mm

22:05

12.4 C

1008.2 hpa

86 %

0.0 km/h aus 113

0.0 km/h aus ---

10.2 C

12.4 C

12.4 C

12.4 C

0 W/m

0.00 mm

22:10

12.3 C

1008.2 hpa

86 %

0.0 km/h aus 115

0.0 km/h aus ---

10.1 C

12.3 C

12.3 C

12.3 C

0 W/m

0.00 mm

22:15

12.3 C

1008.2 hpa

86 %

0.0 km/h aus 109

0.0 km/h aus ---

10.0 C

12.2 C

12.3 C

12.2 C

0 W/m

0.00 mm

22:20

12.3 C

1008.2 hpa

86 %

0.0 km/h aus 113

0.0 km/h aus ---

10.0 C

12.2 C

12.3 C

12.2 C

0 W/m

0.00 mm

22:25

12.2 C

1008.2 hpa

87 %

0.0 km/h aus 112

0.0 km/h aus ---

10.1 C

12.2 C

12.2 C

12.2 C

0 W/m

0.00 mm

22:30

12.1 C

1008.2 hpa

87 %

0.0 km/h aus 113

0.0 km/h aus ---

10.0 C

12.1 C

12.1 C

12.1 C

0 W/m

0.00 mm

22:35

11.9 C

1008.2 hpa

87 %

0.0 km/h aus 111

0.0 km/h aus ---

9.8 C

11.9 C

11.9 C

11.9 C

0 W/m

0.00 mm

22:40

11.8 C

1008.2 hpa

87 %

0.0 km/h aus 111

0.0 km/h aus ---

9.7 C

11.8 C

11.8 C

11.8 C

0 W/m

0.00 mm

22:45

11.7 C

1008.2 hpa

87 %

0.0 km/h aus 109

0.0 km/h aus ---

9.6 C

11.7 C

11.7 C

11.7 C

0 W/m

0.00 mm

22:50

11.7 C

1008.2 hpa

88 %

0.0 km/h aus 108

0.0 km/h aus ---

9.8 C

11.7 C

11.7 C

11.7 C

0 W/m

0.00 mm

22:55

11.7 C

1008.2 hpa

89 %

0.0 km/h aus 114

0.0 km/h aus ---

10.0 C

11.8 C

11.7 C

11.8 C

0 W/m

0.00 mm

23:00

11.4 C

1008.3 hpa

88 %

0.0 km/h aus 112

3.2 km/h aus N

9.5 C

11.5 C

11.4 C

11.5 C

0 W/m

0.00 mm

23:05

11.2 C

1008.3 hpa

89 %

0.0 km/h aus 107

3.2 km/h aus N

9.4 C

11.2 C

11.2 C

11.2 C

0 W/m

0.00 mm

23:10

11.1 C

1008.3 hpa

89 %

0.0 km/h aus 106

0.0 km/h aus ---

9.3 C

11.2 C

11.1 C

11.2 C

0 W/m

0.00 mm

23:15

10.9 C

1008.3 hpa

89 %

0.0 km/h aus 109

0.0 km/h aus ---

9.1 C

11.0 C

10.9 C

11.0 C

0 W/m

0.00 mm

23:20

10.7 C

1008.3 hpa

90 %

0.0 km/h aus 112

0.0 km/h aus ---

9.1 C

10.8 C

10.7 C

10.8 C

0 W/m

0.00 mm

23:25

10.7 C

1008.3 hpa

90 %

0.0 km/h aus 112

0.0 km/h aus ---

9.1 C

10.8 C

10.7 C

10.8 C

0 W/m

0.00 mm

23:30

10.8 C

1008.3 hpa

90 %

0.0 km/h aus 111

0.0 km/h aus ---

9.3 C

10.9 C

10.8 C

10.9 C

0 W/m

0.00 mm

23:35

10.7 C

1008.3 hpa

90 %

0.0 km/h aus 111

0.0 km/h aus ---

9.1 C

10.8 C

10.7 C

10.8 C

0 W/m

0.00 mm

23:40

10.6 C

1008.3 hpa

90 %

1.6 km/h aus 104

3.2 km/h aus N

9.0 C

10.7 C

10.6 C

10.7 C

0 W/m

0.00 mm

23:45

10.3 C

1008.3 hpa

90 %

3.2 km/h aus 107

4.8 km/h aus N

8.7 C

10.4 C

10.3 C

10.4 C

0 W/m

0.00 mm

23:50

10.2 C

1008.3 hpa

91 %

3.2 km/h aus 107

4.8 km/h aus N

8.8 C

10.4 C

10.2 C

10.4 C

0 W/m

0.00 mm

23:55

10.1 C

1008.3 hpa

90 %

1.6 km/h aus 108

4.8 km/h aus N

8.5 C

10.3 C

10.1 C

10.3 C

0 W/m

0.00 mm